Back to catalog

DELTA 1 DEB

AliveSSO
NORAD 37637·DEBRIS·🇺🇸 United States

Launched Mar 5, 1978 from Vandenberg Space Force Base

Loading…

Next Passes (next 24 hours)

TLE

FreshSource: Space-Track

Epoch: Sep 14, 2026, 14:31 UTC

1 37637U 78026HY  26257.60525087  .00000227  00000-0  19067-3 0  9991
2 37637  98.9816 202.1313 0073042 332.9914  26.7455 13.96756008207607

Track DELTA 1 DEB in real time with AllMySat

Download on the App Store